• In Hungary
  • List of Countries
  • For 7 days
  • Water Temperature
  • Satellite Maps
  • Weather Map
  • News
  • Weather Widgets
  • user-avatar
    Login

    Hourly Weather Cieza

    Today, 19 January, Friday

    Time Temperature Precipitation Wind Pressure Humidity
    00:00 +11°C° 0 mm 1 mps 749 mmHg 80%
    01:00 +11°C° 0 mm 1 mps 749 mmHg 77%
    02:00 +11°C° 0 mm 1 mps 748 mmHg 74%
    03:00 +12°C° 0 mm 1 mps 748 mmHg 70%
    04:00 +11°C° 0 mm 1 mps 748 mmHg 69%
    05:00 +11°C° 0 mm 1 mps 748 mmHg 68%
    06:00 +10°C° 0 mm 0 mps 748 mmHg 73%
    07:00 +11°C° 0 mm 0 mps 748 mmHg 70%
    08:00 +12°C° 0 mm 0 mps 749 mmHg 66%
    09:00 +13°C° 0 mm 0 mps 749 mmHg 63%
    10:00 +14°C° 0 mm 0 mps 749 mmHg 58%
    11:00 +15°C° 0 mm 0 mps 749 mmHg 52%
    12:00 +18°C° 0 mm 1 mps 749 mmHg 47%
    13:00 +18°C° 0 mm 1 mps 749 mmHg 44%
    14:00 +19°C° 0 mm 1 mps 749 mmHg 41%
    15:00 +19°C° 0 mm 1 mps 749 mmHg 38%
    16:00 +18°C° 0 mm 1 mps 749 mmHg 44%
    17:00 +15°C° 0 mm 1 mps 750 mmHg 50%
    18:00 +13°C° 0 mm 2 mps 750 mmHg 56%
    19:00 +13°C° 0 mm 2 mps 751 mmHg 56%
    20:00 +13°C° 0 mm 2 mps 751 mmHg 56%
    21:00 +12°C° 0 mm 2 mps 752 mmHg 57%
    22:00 +12°C° 0 mm 2 mps 752 mmHg 58%
    23:00 +12°C° 0 mm 2 mps 753 mmHg 59%

    Tomorrow, 20 January, Saturday

    Time Temperature Precipitation Wind Pressure Humidity
    00:00 +10°C° 0 mm 2 mps 753 mmHg 60%
    01:00 +10°C° 0 mm 2 mps 753 mmHg 62%
    02:00 +10°C° 0 mm 2 mps 753 mmHg 64%
    03:00 +9°C° 0 mm 2 mps 753 mmHg 66%
    04:00 +9°C° 0 mm 3 mps 753 mmHg 68%
    05:00 +9°C° 0 mm 3 mps 753 mmHg 70%
    06:00 +8°C° 0 mm 3 mps 753 mmHg 72%
    07:00 +10°C° 0 mm 3 mps 753 mmHg 67%
    08:00 +11°C° 0 mm 3 mps 754 mmHg 62%
    09:00 +12°C° 0 mm 3 mps 754 mmHg 57%
    10:00 +14°C° 0 mm 4 mps 754 mmHg 49%
    11:00 +17°C° 0 mm 4 mps 754 mmHg 41%
    12:00 +19°C° 0 mm 5 mps 754 mmHg 33%
    13:00 +19°C° 0 mm 5 mps 753 mmHg 31%
    14:00 +20°C° 0 mm 5 mps 753 mmHg 29%
    15:00 +21°C° 0 mm 6 mps 753 mmHg 27%
    16:00 +19°C° 0 mm 5 mps 753 mmHg 32%
    17:00 +16°C° 0 mm 5 mps 753 mmHg 38%
    18:00 +14°C° 0 mm 4 mps 753 mmHg 43%
    19:00 +14°C° 0 mm 4 mps 754 mmHg 45%
    20:00 +13°C° 0 mm 4 mps 754 mmHg 47%
    21:00 +13°C° 0 mm 4 mps 755 mmHg 48%
    22:00 +12°C° 0 mm 4 mps 755 mmHg 50%
    23:00 +12°C° 0 mm 4 mps 755 mmHg 52%

    Day after tomorrow, 21 January, Sunday

    Time Temperature Precipitation Wind Pressure Humidity
    00:00 +12°C° 0 mm 4 mps 755 mmHg 53%
    01:00 +12°C° 0 mm 4 mps 755 mmHg 54%
    02:00 +12°C° 0 mm 4 mps 755 mmHg 55%
    03:00 +11°C° 0 mm 4 mps 755 mmHg 56%
    04:00 +11°C° 0 mm 4 mps 755 mmHg 56%
    05:00 +11°C° 0 mm 4 mps 755 mmHg 57%
    06:00 +11°C° 0 mm 4 mps 755 mmHg 58%
    07:00 +12°C° 0 mm 4 mps 755 mmHg 56%
    08:00 +13°C° 0 mm 4 mps 755 mmHg 55%
    09:00 +14°C° 0 mm 5 mps 756 mmHg 53%
    10:00 +16°C° 0 mm 5 mps 755 mmHg 50%
    11:00 +19°C° 0 mm 6 mps 755 mmHg 46%
    12:00 +21°C° 0 mm 6 mps 755 mmHg 43%
    13:00 +21°C° 0 mm 6 mps 755 mmHg 41%
    14:00 +22°C° 0 mm 6 mps 754 mmHg 40%
    15:00 +22°C° 0 mm 6 mps 754 mmHg 39%
    16:00 +20°C° 0 mm 6 mps 754 mmHg 44%
    17:00 +17°C° 0 mm 5 mps 754 mmHg 50%
    18:00 +17°C° 0 mm 4 mps 754 mmHg 55%
    19:00 +15°C° 0 mm 4 mps 755 mmHg 57%
    20:00 +14°C° 0 mm 4 mps 755 mmHg 59%
    21:00 +14°C° 0 mm 4 mps 756 mmHg 60%
    22:00 +13°C° 0 mm 4 mps 755 mmHg 62%
    23:00 +13°C° 0 mm 3 mps 755 mmHg 63%

    22 January, Monday

    Time Temperature Precipitation Wind Pressure Humidity
    00:00 +13°C° 0 mm 3 mps 755 mmHg 64%
    01:00 +12°C° 0 mm 3 mps 755 mmHg 66%
    02:00 +12°C° 0 mm 3 mps 755 mmHg 67%
    03:00 +12°C° 0 mm 3 mps 755 mmHg 69%
    04:00 +11°C° 0 mm 3 mps 755 mmHg 69%
    05:00 +11°C° 0 mm 3 mps 755 mmHg 70%
    06:00 +11°C° 0 mm 3 mps 755 mmHg 71%
    07:00 +12°C° 0 mm 3 mps 755 mmHg 66%
    08:00 +13°C° 0 mm 3 mps 755 mmHg 61%
    09:00 +14°C° 0 mm 3 mps 755 mmHg 56%
    10:00 +17°C° 0 mm 3 mps 755 mmHg 49%
    11:00 +19°C° 0 mm 3 mps 755 mmHg 43%
    12:00 +21°C° 0 mm 3 mps 755 mmHg 36%
    13:00 +22°C° 0 mm 3 mps 754 mmHg 35%
    14:00 +22°C° 0 mm 4 mps 754 mmHg 34%
    15:00 +23°C° 0 mm 4 mps 753 mmHg 32%
    16:00 +21°C° 0 mm 3 mps 753 mmHg 39%
    17:00 +18°C° 0 mm 3 mps 754 mmHg 46%
    18:00 +16°C° 0 mm 3 mps 754 mmHg 53%
    19:00 +16°C° 0 mm 3 mps 754 mmHg 55%
    20:00 +14°C° 0 mm 3 mps 755 mmHg 57%
    21:00 +13°C° 0 mm 3 mps 755 mmHg 59%
    22:00 +13°C° 0 mm 3 mps 755 mmHg 60%
    23:00 +14°C° 0 mm 2 mps 755 mmHg 61%

    23 January, Tuesday

    Time Temperature Precipitation Wind Pressure Humidity
    00:00 +13°C° 0 mm 2 mps 755 mmHg 63%
    01:00 +13°C° 0 mm 2 mps 755 mmHg 63%
    02:00 +12°C° 0 mm 2 mps 755 mmHg 64%
    03:00 +12°C° 0 mm 2 mps 755 mmHg 65%
    04:00 +12°C° 0 mm 2 mps 755 mmHg 65%
    05:00 +10°C° 0 mm 2 mps 755 mmHg 66%
    06:00 +10°C° 0 mm 2 mps 755 mmHg 67%
    07:00 +12°C° 0 mm 2 mps 755 mmHg 61%
    08:00 +14°C° 0 mm 2 mps 755 mmHg 55%
    09:00 +15°C° 0 mm 1 mps 756 mmHg 50%
    10:00 +18°C° 0 mm 1 mps 756 mmHg 45%
    11:00 +20°C° 0 mm 1 mps 756 mmHg 39%
    12:00 +21°C° 0 mm 1 mps 755 mmHg 34%
    13:00 +22°C° 0 mm 1 mps 755 mmHg 33%
    14:00 +22°C° 0 mm 1 mps 755 mmHg 32%
    15:00 +23°C° 0 mm 1 mps 754 mmHg 30%
    16:00 +20°C° 0 mm 1 mps 754 mmHg 38%
    17:00 +18°C° 0 mm 1 mps 754 mmHg 46%
    18:00 +15°C° 0 mm 1 mps 755 mmHg 54%
    19:00 +14°C° 0 mm 1 mps 755 mmHg 58%
    20:00 +13°C° 0 mm 1 mps 755 mmHg 62%
    21:00 +13°C° 0 mm 1 mps 755 mmHg 66%
    22:00 +12°C° 0 mm 1 mps 755 mmHg 69%
    23:00 +12°C° 0 mm 1 mps 755 mmHg 73%

    24 January, Wednesday

    Time Temperature Precipitation Wind Pressure Humidity
    00:00 +10°C° 0 mm 0 mps 755 mmHg 76%
    01:00 +10°C° 0 mm 0 mps 755 mmHg 77%
    02:00 +10°C° 0 mm 0 mps 755 mmHg 78%
    03:00 +9°C° 0 mm 0 mps 755 mmHg 79%
    04:00 +9°C° 0 mm 0 mps 755 mmHg 80%
    05:00 +9°C° 0 mm 0 mps 755 mmHg 80%
    06:00 +9°C° 0 mm 0 mps 755 mmHg 80%
    07:00 +10°C° 0 mm 0 mps 755 mmHg 74%
    08:00 +13°C° 0 mm 1 mps 755 mmHg 67%
    09:00 +15°C° 0 mm 1 mps 756 mmHg 61%
    10:00 +16°C° 0 mm 1 mps 755 mmHg 56%
    11:00 +18°C° 0 mm 2 mps 755 mmHg 51%
    12:00 +19°C° 0 mm 2 mps 755 mmHg 47%
    13:00 +19°C° 0 mm 2 mps 755 mmHg 46%
    14:00 +20°C° 0 mm 2 mps 754 mmHg 45%
    15:00 +20°C° 0 mm 3 mps 754 mmHg 44%
    16:00 +18°C° 0 mm 2 mps 754 mmHg 53%
    17:00 +16°C° 0 mm 2 mps 754 mmHg 62%
    18:00 +14°C° 0 mm 1 mps 754 mmHg 71%
    19:00 +13°C° 0 mm 1 mps 754 mmHg 76%
    20:00 +12°C° 0 mm 1 mps 754 mmHg 80%
    21:00 +12°C° 0 mm 1 mps 755 mmHg 84%
    22:00 +11°C° 0 mm 1 mps 754 mmHg 85%
    23:00 +11°C° 0 mm 1 mps 754 mmHg 86%
    Show more